[[{"header":{"parameterUnit":"m.s-1","parameterCategory":1,"la1":30.2991,"la2":30.254,"lo1":-89.0895,"lo2":-89.0444,"dy":0.0017,"dx":0.0017,"nx":28,"ny":28,"refTime":"2025-05-26T09:00:00:Z","depth":0,"parameterNumber":2,"parameterNumberName":"U-component_of_WINDS"},"data":[0,0,0,0,0,0,0,0,0,0,0,0,0,0,0,0,0,0,0,0,0,0,0,0,0,0,0,0,0,0,0,0,0,0,0,0,0,0,0,0,0,0,0,0,0,0,0,0,0,0,0,0,0,0,0,0,0,0,0.6092,0.6092,0,0.6055,0.6055,0.6054,0.6034,0.6034,0.6034,0.6034,0.5998,0.5997,0.5996,0,0,0,0,0,0,0,0,0,0,0,0,0,0.6144,0.6144,0.6092,0.6091,0.6091,0.6055,0.6055,0.6054,0.6034,0.6034,0.6034,0.6034,0.5998,0.5997,0.5996,0,0,0,0,0,0,0,0,0,0,0,0,0,0.6116,0.6143,0.6092,0.6077,0.6075,0.6055,0.6055,0.6054,0.6034,0.6034,0.6034,0.6034,0.5999,0.5998,0.5996,0.599,0,0,0.5992,0.5991,0,0,0,0,0,0,0,0,0.6118,0.6114,0.6079,0.6078,0.6076,0.6049,0.606,0.6032,0.6034,0.605,0.6034,0.6034,0.6015,0.6013,0.6006,0.5988,0.5986,0.5992,0.5991,0.5991,0.599,0,0,0,0,0,0,0,0.612,0.6116,0.6077,0.6079,0.6077,0.6071,0.6067,0.6055,0.6034,0.6048,0.6047,0.6043,0.6014,0.6007,0.6005,0.5986,0.5992,0.5991,0.599,0.5989,0.5957,0.5957,0,0,0,0,0,0,0.6124,0.6117,0.6079,0.6076,0.6097,0.6071,0.6066,0.6058,0.6034,0.603,0.6043,0.6042,0.601,0.6007,0.6004,0.5992,0.5991,0.5989,0.5989,0.5957,0.5957,0.5957,0,0,0,0,0,0,0.6125,0.6121,0.608,0.6096,0.6091,0.607,0.6061,0.6057,0.605,0.6029,0.6025,0.6039,0.6009,0.6006,0.5992,0.5991,0.5989,0.5987,0.5957,0.5957,0.5957,0.5971,0,0,0,0,0,0,0.6127,0.6121,0.6119,0.6096,0.609,0.607,0.6061,0.6056,0.6048,0.6046,0.6025,0.6022,0.6009,0.5994,0.5991,0.5989,0.5986,0.5958,0.5957,0.5957,0.597,0.5971,0.5972,0,0,0,0,0,0.6129,0.6125,0.6119,0.6114,0.6086,0.607,0.6066,0.6051,0.6048,0.6044,0.6031,0.6022,0.5992,0.5993,0.5989,0.5987,0.5958,0.5957,0.5957,0.597,0.5971,0.5972,0,0,0,0,0,0,0.6149,0.6122,0.6115,0.6104,0.6089,0.6066,0.6062,0.6053,0.6039,0.6038,0.6021,0.6016,0.6004,0.5994,0.5997,0.5977,0.5974,0.5973,0.5984,0.5985,0.5986,0.5988,0.5985,0,0,0,0,0,0.6152,0.6141,0.6118,0.611,0.6103,0.6084,0.6076,0.6065,0.6049,0.6043,0.6029,0.6014,0.6001,0.5993,0.5979,0.5969,0.5963,0.5965,0.5965,0.5966,0.5965,0.5956,0.5956,0.5957,0.5957,0.5957,0,0,0.6159,0.6142,0.6137,0.6114,0.6101,0.6089,0.6079,0.6067,0.6057,0.6042,0.6028,0.6016,0.5999,0.5986,0.598,0.5977,0.5964,0.5966,0.5967,0.5965,0.5956,0.5956,0.5956,0.5957,0.5957,0.5957,0,0,0.6164,0.6151,0.6142,0.6129,0.6109,0.6096,0.6094,0.6072,0.6063,0.6049,0.6036,0.6024,0.6003,0.5989,0.598,0.5977,0.5969,0.5974,0.5977,0.5969,0.5969,0.5969,0.5966,0.5966,0.5973,0.5973,0.5973,0,0.6175,0.6156,0.6139,0.6127,0.6116,0.61,0.609,0.6078,0.6056,0.6049,0.6046,0.6016,0.6004,0.5986,0.5985,0.5979,0.5975,0.5976,0.597,0.597,0.5969,0.5967,0.5966,0.5974,0.5974,0.5974,0.5974,0,0.6169,0.6156,0.6151,0.6127,0.6116,0.6106,0.6087,0.6078,0.6067,0.6054,0.6038,0.6022,0.6004,0.5999,0.599,0.598,0.5979,0.5974,0.5969,0.597,0.5967,0.5966,0.5975,0.5975,0.5974,0.5974,0,0,0.6187,0.6152,0.6151,0.6139,0.6115,0.6104,0.6092,0.6073,0.6065,0.6049,0.6038,0.6018,0.6012,0.6001,0.5991,0.5983,0.5979,0.5978,0.5978,0.5978,0.5965,0.5968,0.5968,0.5974,0.5973,0.5973,0.5966,0,0.6187,0.6164,0.6147,0.613,0.6117,0.61,0.6089,0.6073,0.606,0.6046,0.6032,0.6018,0.6012,0.6005,0.5997,0.5982,0.5977,0.5982,0.5962,0.5961,0.5966,0.5966,0.597,0.5965,0.5965,0.5965,0.5965,0,0.6185,0.6168,0.615,0.6124,0.6118,0.6108,0.6088,0.6076,0.6057,0.6048,0.6034,0.6022,0.6008,0.6005,0.5983,0.5988,0.5978,0.5969,0.5969,0.5966,0.5963,0.5962,0.5963,0.5961,0.5963,0.5963,0.5963,0,0.6198,0.6171,0.6155,0.6146,0.6117,0.611,0.6097,0.6078,0.6067,0.6049,0.6042,0.6024,0.6013,0.5999,0.5982,0.5982,0.5962,0.5958,0.5954,0.5954,0.595,0.595,0.5948,0.5946,0.5946,0.5946,0.5946,0,0.62,0.6189,0.616,0.6151,0.6137,0.6117,0.6104,0.6091,0.6073,0.606,0.6045,0.6033,0.6011,0.5997,0.5984,0.5967,0.5963,0.5955,0.5951,0.5955,0.5956,0.5948,0.5948,0.5946,0.5946,0.5946,0.5946,0,0.6212,0.6192,0.6174,0.6147,0.614,0.6131,0.6108,0.6097,0.6082,0.6066,0.6061,0.6038,0.602,0.6001,0.5977,0.5968,0.5951,0.5947,0.5957,0.5955,0.5951,0.5951,0.5942,0.594,0.5941,0.5941,0.5941,0,0.6214,0.6204,0.6175,0.6165,0.6152,0.6136,0.6124,0.6104,0.6092,0.6068,0.606,0.604,0.6023,0.5994,0.5976,0.5957,0.5951,0.5949,0.5948,0.5952,0.5949,0.5949,0.5948,0.595,0.595,0.595,0.595,0,0.6218,0.6208,0.6192,0.617,0.6156,0.6139,0.6121,0.6113,0.609,0.6077,0.6057,0.6044,0.6018,0.5998,0.5976,0.5963,0.5952,0.595,0.5948,0.5952,0.5957,0.5953,0.5958,0.5951,0.5951,0.5951,0.5951,0.5951,0.6224,0.6214,0.6191,0.6172,0.6156,0.6139,0.6127,0.611,0.6093,0.607,0.6059,0.6039,0.6017,0.5987,0.5974,0.5957,0.5954,0.5951,0.595,0.595,0.595,0.5961,0.5953,0.5953,0.5953,0.5953,0.5953,0,0.6227,0.6211,0.6193,0.6168,0.6152,0.6142,0.6122,0.6109,0.6091,0.6072,0.6055,0.6031,0.6011,0.599,0.5968,0.5959,0.5953,0.5954,0.5954,0.5951,0.5954,0.5958,0.5959,0.5959,0.5959,0.5959,0.5959,0.5959,0.6226,0.6207,0.6195,0.6168,0.6152,0.6131,0.6119,0.6103,0.6087,0.6061,0.6044,0.603,0.6009,0.5986,0.5967,0.5961,0.5953,0.5955,0.5947,0.5951,0.5951,0.595,0.5954,0.5953,0.5953,0.5945,0.5945,0.5945]},{"header":{"parameterUnit":"m.s-1","parameterCategory":1,"la1":30.2991,"la2":30.254,"lo1":-89.0895,"lo2":-89.0444,"dy":0.0017,"dx":0.0017,"nx":28,"ny":28,"refTime":"2025-05-26T09:00:00:Z","depth":0,"parameterNumber":3,"parameterNumberName":"V-component_of_WINDS"},"data":[0,0,0,0,0,0,0,0,0,0,0,0,0,0,0,0,0,0,0,0,0,0,0,0,0,0,0,0,0,0,0,0,0,0,0,0,0,0,0,0,0,0,0,0,0,0,0,0,0,0,0,0,0,0,0,0,0,0,6.2971,6.297,0,6.2938,6.2938,6.2937,6.284,6.2838,6.2836,6.2834,6.2801,6.2802,6.2803,0,0,0,0,0,0,0,0,0,0,0,0,0,6.2949,6.295,6.2971,6.297,6.297,6.2938,6.2938,6.2937,6.2841,6.2838,6.2836,6.2833,6.2801,6.2802,6.2803,0,0,0,0,0,0,0,0,0,0,0,0,0,6.2942,6.2951,6.2971,6.2918,6.2913,6.2938,6.2937,6.2937,6.2841,6.2838,6.2835,6.2832,6.28,6.2802,6.2804,6.2877,0,0,6.2809,6.2809,0,0,0,0,0,0,0,0,6.2943,6.2943,6.2926,6.2922,6.2916,6.289,6.2918,6.2917,6.2842,6.2869,6.2834,6.283,6.2833,6.2832,6.2833,6.2876,6.2874,6.2809,6.281,6.281,6.2811,0,0,0,0,0,0,0,6.2943,6.2944,6.2958,6.2926,6.292,6.2896,6.2891,6.2917,6.2869,6.2866,6.2859,6.2856,6.283,6.2832,6.2831,6.2874,6.2809,6.281,6.2811,6.2812,6.2973,6.2976,0,0,0,0,0,0,6.2951,6.2945,6.2959,6.2957,6.2922,6.2899,6.2894,6.2902,6.2869,6.2861,6.2859,6.2852,6.283,6.283,6.283,6.2912,6.281,6.2812,6.2813,6.297,6.2974,6.2977,0,0,0,0,0,0,6.2951,6.2953,6.296,6.2949,6.2948,6.2902,6.2912,6.2903,6.2904,6.2863,6.2854,6.2869,6.2828,6.2828,6.2866,6.2909,6.2813,6.2814,6.2966,6.2971,6.2975,6.3078,0,0,0,0,0,0,6.2951,6.2954,6.2982,6.295,6.2949,6.2997,6.2915,6.2904,6.2907,6.2897,6.2871,6.2863,6.2825,6.2864,6.2867,6.291,6.2816,6.2962,6.2968,6.2974,6.307,6.3085,6.3098,0,0,0,0,0,6.2951,6.3013,6.2984,6.2986,6.2983,6.3,6.2999,6.2953,6.2911,6.2938,6.2912,6.2864,6.2905,6.2868,6.2872,6.2915,6.2959,6.2966,6.2973,6.3064,6.3082,6.3098,0,0,0,0,0,0,6.3051,6.3008,6.2975,6.3029,6.3019,6.2983,6.3016,6.2975,6.2977,6.2968,6.2912,6.2907,6.2952,6.2938,6.2898,6.2984,6.2923,6.2932,6.2991,6.3008,6.3022,6.3024,6.2817,0,0,0,0,0,6.308,6.3097,6.3058,6.3109,6.3106,6.3062,6.3068,6.3034,6.3021,6.3016,6.2993,6.2982,6.2992,6.3,6.3007,6.3068,6.306,6.31,6.3114,6.3126,6.3133,6.3162,6.3178,6.3001,6.3001,6.3001,0,0,6.3138,6.3117,6.3131,6.3129,6.3117,6.3135,6.3059,6.3083,6.3095,6.302,6.3053,6.3036,6.3021,6.307,6.309,6.3059,6.318,6.3135,6.3145,6.3146,6.3171,6.3188,6.3203,6.3006,6.3006,6.3005,0,0,6.3254,6.3241,6.328,6.327,6.3252,6.3223,6.3233,6.3203,6.3188,6.3221,6.3164,6.3179,6.3198,6.3188,6.3186,6.3298,6.3253,6.3302,6.3375,6.3404,6.3418,6.343,6.3467,6.3482,6.331,6.331,6.331,0,6.333,6.3355,6.3306,6.3333,6.3332,6.3264,6.3303,6.3296,6.3282,6.3283,6.3249,6.3269,6.3255,6.3299,6.3326,6.3328,6.3336,6.3304,6.342,6.3432,6.3442,6.3477,6.3492,6.3316,6.3315,6.3315,6.3314,0,6.3447,6.3466,6.35,6.3487,6.3491,6.3524,6.348,6.3489,6.3455,6.3429,6.3463,6.3442,6.3443,6.3451,6.3419,6.3491,6.3472,6.343,6.3368,6.3466,6.3497,6.3511,6.3324,6.3322,6.332,6.3319,0,0,6.3625,6.3584,6.3597,6.3589,6.3565,6.3578,6.3608,6.3608,6.3616,6.3609,6.3631,6.3648,6.3608,6.3606,6.3572,6.3597,6.3684,6.3551,6.355,6.3574,6.376,6.379,6.3806,6.3655,6.3657,6.3659,6.376,0,6.3732,6.3779,6.3736,6.3791,6.3807,6.3742,6.3767,6.3755,6.3732,6.3741,6.3715,6.3727,6.3675,6.3672,6.3695,6.3668,6.372,6.3661,6.3673,6.3674,6.3677,6.3823,6.3855,6.3952,6.3772,6.3774,6.3776,0,6.3864,6.3861,6.3918,6.3888,6.3893,6.3916,6.3912,6.3922,6.3907,6.3887,6.3885,6.3842,6.3868,6.3809,6.3843,6.3804,6.3807,6.3795,6.3797,6.3795,6.373,6.3822,6.3981,6.3995,6.3796,6.3794,6.3793,0,6.3984,6.3996,6.403,6.4026,6.3993,6.401,6.3997,6.3978,6.398,6.3977,6.3977,6.3978,6.3977,6.3978,6.3937,6.3898,6.3975,6.3913,6.3959,6.396,6.3976,6.3975,6.4135,6.3982,6.3982,6.3982,6.3982,0,6.4107,6.4144,6.4083,6.4105,6.4143,6.4093,6.4132,6.4113,6.4096,6.4112,6.4057,6.4073,6.4019,6.4029,6.3997,6.4029,6.403,6.4014,6.4005,6.4018,6.4019,6.4017,6.4008,6.3986,6.3985,6.3984,6.3984,0,6.4247,6.4209,6.4242,6.4207,6.4199,6.4229,6.4199,6.4217,6.419,6.421,6.4212,6.417,6.4179,6.4138,6.414,6.4119,6.4165,6.4146,6.4171,6.4164,6.421,6.4206,6.4373,6.4391,6.4229,6.4231,6.4232,0,6.4327,6.4353,6.4321,6.4328,6.4317,6.4328,6.433,6.4281,6.4285,6.4269,6.4288,6.4292,6.4293,6.431,6.4279,6.428,6.4259,6.4317,6.4258,6.427,6.4257,6.4254,6.4256,6.4329,6.4331,6.4333,6.4334,0,6.4472,6.4451,6.4455,6.4453,6.4456,6.4452,6.4444,6.4452,6.44,6.4407,6.4415,6.4415,6.4417,6.4421,6.4416,6.4402,6.4359,6.4353,6.4363,6.4375,6.4387,6.4379,6.4201,6.4349,6.4347,6.4346,6.4345,6.4345,6.4582,6.4602,6.4582,6.4588,6.4577,6.457,6.4584,6.4559,6.4564,6.4561,6.4533,6.4546,6.4528,6.4516,6.4506,6.4515,6.4488,6.4503,6.4506,6.451,6.4517,6.4388,6.4515,6.4514,6.4514,6.4513,6.4513,0,6.4722,6.4705,6.4712,6.4702,6.4706,6.4666,6.4655,6.4661,6.4673,6.466,6.4662,6.467,6.4674,6.4643,6.4643,6.4656,6.4636,6.4657,6.4654,6.4651,6.4543,6.4533,6.4673,6.4673,6.4673,6.4673,6.4673,6.4673,6.4795,6.4825,6.4802,6.4825,6.4809,6.482,6.4817,6.4811,6.48,6.4811,6.4814,6.4794,6.4773,6.4771,6.4772,6.4763,6.4764,6.4792,6.4776,6.4675,6.4659,6.4644,6.4635,6.4793,6.4793,6.4883,6.4884,6.4884]}]]